| time (UTC) | temp F | wind direction | speed knots | gust knots | rain 1hr in | rain 24hr in | rain mn in | humidity % | barometer mb |
| 20260508063320 | 59 | 160 | 4.3 | 0.0 | 0.00 | 0.00 | 0.00 | 88 | 1014.0 |
| 20260508061817 | 59 | 190 | 2.6 | 0.0 | 0.00 | 0.00 | 0.00 | 88 | 1014.0 |
| 20260508060320 | 59 | 190 | 2.6 | 0.0 | 0.00 | 0.00 | 0.00 | 88 | 1014.0 |
| 20260508054818 | 57 | 180 | 1.7 | 0.0 | 0.00 | 0.00 | 0.00 | 94 | 1014.0 |
| 20260508053320 | 57 | 180 | 1.7 | 0.0 | 0.00 | 0.00 | 0.00 | 94 | 1014.0 |
| 20260508051821 | 57 | 0 | 0.0 | 0.0 | 0.00 | 0.00 | 0.00 | 94 | 1014.0 |
| 20260508050321 | 57 | 0 | 0.0 | 0.0 | 0.00 | 0.00 | 0.00 | 94 | 1014.0 |
| 20260508044820 | 57 | 0 | 0.0 | 0.0 | 0.00 | 0.00 | 0.00 | 94 | 1014.0 |
| 20260508043320 | 57 | 0 | 0.0 | 0.0 | 0.00 | 0.00 | 0.00 | 94 | 1014.0 |
| 20260508041818 | 55 | 0 | 0.0 | 0.0 | 0.00 | 0.00 | 0.00 | 100 | 1014.0 |
| 20260508040321 | 55 | 0 | 0.0 | 0.0 | 0.00 | 0.00 | 0.00 | 100 | 1014.0 |
| 20260508034818 | 55 | 1.7 | 0.0 | 0.00 | 0.00 | 0.00 | 100 | 1014.0 | |
| 20260508033320 | 55 | 1.7 | 0.0 | 0.00 | 0.00 | 0.00 | 100 | 1014.0 | |
| 20260508031820 | 57 | 320 | 2.6 | 0.0 | 0.00 | 0.00 | 0.00 | 94 | 1014.0 |
| 20260508030321 | 57 | 320 | 2.6 | 0.0 | 0.00 | 0.00 | 0.00 | 94 | 1014.0 |
| 20260508024820 | 57 | 250 | 5.2 | 0.0 | 0.00 | 0.00 | 0.00 | 88 | 1014.0 |
| 20260508023321 | 57 | 250 | 5.2 | 0.0 | 0.00 | 0.00 | 0.00 | 88 | 1014.0 |
| 20260508021821 | 57 | 280 | 6.1 | 0.0 | 0.00 | 0.00 | 0.00 | 88 | 1013.0 |
| 20260508020320 | 57 | 280 | 6.1 | 0.0 | 0.00 | 0.00 | 0.00 | 88 | 1013.0 |
| 20260508014820 | 57 | 260 | 7.8 | 0.0 | 0.00 | 0.00 | 0.00 | 82 | 1013.0 |
| 20260508013320 | 57 | 260 | 7.8 | 0.0 | 0.00 | 0.00 | 0.00 | 82 | 1013.0 |
| 20260508011820 | 57 | 300 | 6.1 | 0.0 | 0.00 | 0.00 | 0.00 | 77 | 1013.0 |
| 20260508010320 | 57 | 300 | 6.1 | 0.0 | 0.00 | 0.00 | 0.00 | 77 | 1013.0 |
| 20260508004820 | 55 | 220 | 4.3 | 0.0 | 0.00 | 0.00 | 0.00 | 82 | 1013.0 |
| 20260508003320 | 55 | 220 | 4.3 | 0.0 | 0.00 | 0.00 | 0.00 | 82 | 1013.0 |
| 20260508001819 | 57 | 0.9 | 0.0 | 0.00 | 0.00 | 0.00 | 77 | 1013.0 | |
| 20260508000320 | 57 | 0.9 | 0.0 | 0.00 | 0.00 | 0.00 | 77 | 1013.0 | |
| 20260507234821 | 59 | 310 | 4.3 | 0.0 | 0.00 | 0.00 | 0.00 | 72 | 1013.0 |
| 20260507233320 | 59 | 310 | 4.3 | 0.0 | 0.00 | 0.00 | 0.00 | 72 | 1013.0 |
| 20260507231820 | 59 | 230 | 8.7 | 0.0 | 0.00 | 0.00 | 0.00 | 72 | 1013.0 |
| 20260507230320 | 59 | 230 | 8.7 | 0.0 | 0.00 | 0.00 | 0.00 | 72 | 1013.0 |
| 20260507224820 | 59 | 230 | 8.7 | 0.0 | 0.00 | 0.00 | 0.00 | 68 | 1013.0 |
| 20260507223437 | 59 | 230 | 8.7 | 0.0 | 0.00 | 0.00 | 0.00 | 68 | 1013.0 |
| 20260507221820 | 59 | 210 | 7.0 | 0.0 | 0.00 | 0.00 | 0.00 | 68 | 1013.0 |
| 20260507220320 | 59 | 210 | 7.0 | 0.0 | 0.00 | 0.00 | 0.00 | 68 | 1013.0 |
| 20260507214820 | 57 | 2.6 | 0.0 | 0.00 | 0.00 | 0.00 | 72 | 1013.0 | |
| 20260507213322 | 57 | 2.6 | 0.0 | 0.00 | 0.00 | 0.00 | 72 | 1013.0 | |
| 20260507211820 | 57 | 150 | 6.1 | 0.0 | 0.00 | 0.00 | 0.00 | 72 | 1013.0 |
| 20260507210320 | 57 | 150 | 6.1 | 0.0 | 0.00 | 0.00 | 0.00 | 72 | 1013.0 |
| 20260507204820 | 59 | 150 | 6.1 | 0.0 | 0.00 | 0.00 | 0.00 | 68 | 1013.0 |
| 20260507203320 | 59 | 150 | 6.1 | 0.0 | 0.00 | 0.00 | 0.00 | 68 | 1013.0 |
| 20260507201820 | 59 | 160 | 7.0 | 0.0 | 0.00 | 0.00 | 0.00 | 68 | 1013.0 |
| 20260507200321 | 59 | 160 | 7.0 | 0.0 | 0.00 | 0.00 | 0.00 | 68 | 1013.0 |
| 20260507194826 | 59 | 150 | 7.8 | 0.0 | 0.00 | 0.00 | 0.00 | 68 | 1013.0 |
| 20260507193320 | 59 | 150 | 7.8 | 0.0 | 0.00 | 0.00 | 0.00 | 68 | 1013.0 |
| 20260507191820 | 63 | 150 | 7.0 | 0.0 | 0.00 | 0.00 | 0.00 | 59 | 1013.0 |
| 20260507190321 | 63 | 150 | 7.0 | 0.0 | 0.00 | 0.00 | 0.00 | 59 | 1013.0 |
| 20260507184822 | 64 | 170 | 9.6 | 0.0 | 0.00 | 0.00 | 0.00 | 56 | 1013.0 |
| 20260507183320 | 64 | 170 | 9.6 | 0.0 | 0.00 | 0.00 | 0.00 | 56 | 1013.0 |
| 20260507181820 | 66 | 180 | 7.8 | 0.0 | 0.00 | 0.00 | 0.00 | 49 | 1013.0 |
| 20260507180320 | 66 | 180 | 7.8 | 0.0 | 0.00 | 0.00 | 0.00 | 49 | 1013.0 |
| 20260507174820 | 68 | 170 | 7.0 | 0.0 | 0.00 | 0.00 | 0.00 | 46 | 1013.0 |
| 20260507173321 | 68 | 170 | 7.0 | 0.0 | 0.00 | 0.00 | 0.00 | 46 | 1013.0 |
| 20260507171821 | 68 | 160 | 11.3 | 0.0 | 0.00 | 0.00 | 0.00 | 46 | 1012.0 |
| 20260507170320 | 68 | 160 | 11.3 | 0.0 | 0.00 | 0.00 | 0.00 | 46 | 1012.0 |
| 20260507164821 | 68 | 150 | 13.0 | 0.0 | 0.00 | 0.00 | 0.00 | 49 | 1012.0 |
| 20260507163320 | 68 | 150 | 13.0 | 0.0 | 0.00 | 0.00 | 0.00 | 49 | 1012.0 |
| 20260507161820 | 70 | 150 | 13.9 | 0.0 | 0.00 | 0.00 | 0.00 | 46 | 1012.0 |
| 20260507160321 | 70 | 150 | 13.9 | 0.0 | 0.00 | 0.00 | 0.00 | 46 | 1012.0 |
| 20260507154820 | 72 | 140 | 17.4 | 0.0 | 0.00 | 0.00 | 0.00 | 44 | 1012.0 |
| 20260507153320 | 72 | 140 | 17.4 | 0.0 | 0.00 | 0.00 | 0.00 | 44 | 1012.0 |
| 20260507151820 | 73 | 150 | 18.2 | 0.0 | 0.00 | 0.00 | 0.00 | 41 | 1012.0 |
| 20260507150320 | 73 | 150 | 18.2 | 0.0 | 0.00 | 0.00 | 0.00 | 41 | 1012.0 |
| 20260507144820 | 75 | 160 | 17.4 | 0.0 | 0.00 | 0.00 | 0.00 | 36 | 1012.0 |
| 20260507143322 | 75 | 160 | 17.4 | 0.0 | 0.00 | 0.00 | 0.00 | 36 | 1012.0 |
| 20260507141820 | 75 | 150 | 18.2 | 0.0 | 0.00 | 0.00 | 0.00 | 39 | 1012.0 |
| 20260507140320 | 75 | 150 | 18.2 | 0.0 | 0.00 | 0.00 | 0.00 | 39 | 1012.0 |
| 20260507134821 | 75 | 150 | 20.0 | 0.0 | 0.00 | 0.00 | 0.00 | 39 | 1012.0 |
| 20260507133320 | 75 | 150 | 20.0 | 0.0 | 0.00 | 0.00 | 0.00 | 39 | 1012.0 |
| 20260507131817 | 75 | 140 | 18.2 | 0.0 | 0.00 | 0.00 | 0.00 | 39 | 1012.0 |
| 20260507130320 | 75 | 140 | 18.2 | 0.0 | 0.00 | 0.00 | 0.00 | 39 | 1012.0 |
| 20260507124820 | 75 | 140 | 18.2 | 0.0 | 0.00 | 0.00 | 0.00 | 41 | 1013.0 |
| 20260507123358 | 75 | 140 | 18.2 | 0.0 | 0.00 | 0.00 | 0.00 | 41 | 1013.0 |
| 20260507121820 | 75 | 150 | 17.4 | 0.0 | 0.00 | 0.00 | 0.00 | 41 | 1013.0 |
| 20260507120320 | 75 | 150 | 17.4 | 0.0 | 0.00 | 0.00 | 0.00 | 41 | 1013.0 |
| 20260507114820 | 77 | 130 | 13.9 | 0.0 | 0.00 | 0.00 | 0.00 | 44 | 1013.0 |
| 20260507113337 | 73 | 130 | 13.0 | 0.0 | 0.00 | 0.00 | 0.00 | 44 | 1014.0 |
| 20260507111820 | 73 | 130 | 13.0 | 0.0 | 0.00 | 0.00 | 0.00 | 44 | 1014.0 |
| 20260507110320 | 73 | 130 | 13.0 | 0.0 | 0.00 | 0.00 | 0.00 | 44 | 1014.0 |
| 20260507104819 | 73 | 120 | 13.0 | 0.0 | 0.00 | 0.00 | 0.00 | 47 | 1014.0 |
| 20260507103320 | 73 | 120 | 13.0 | 0.0 | 0.00 | 0.00 | 0.00 | 47 | 1014.0 |
| 20260507101820 | 73 | 130 | 11.3 | 0.0 | 0.00 | 0.00 | 0.00 | 47 | 1014.0 |
| 20260507100321 | 73 | 130 | 11.3 | 0.0 | 0.00 | 0.00 | 0.00 | 47 | 1014.0 |
| 20260507094820 | 73 | 130 | 8.7 | 19.1 | 0.00 | 0.00 | 0.00 | 50 | 1014.0 |
| 20260507093320 | 73 | 130 | 8.7 | 19.1 | 0.00 | 0.00 | 0.00 | 50 | 1014.0 |
| 20260507091822 | 73 | 160 | 7.0 | 0.0 | 0.00 | 0.00 | 0.00 | 47 | 1014.0 |
| 20260507090320 | 73 | 160 | 7.0 | 0.0 | 0.00 | 0.00 | 0.00 | 47 | 1014.0 |
| 20260507084820 | 72 | 160 | 6.1 | 0.0 | 0.00 | 0.00 | 0.00 | 50 | 1014.0 |
| 20260507083320 | 72 | 160 | 6.1 | 0.0 | 0.00 | 0.00 | 0.00 | 50 | 1014.0 |
| 20260507081820 | 70 | 150 | 6.1 | 0.0 | 0.00 | 0.00 | 0.00 | 50 | 1014.0 |
| 20260507080321 | 70 | 150 | 6.1 | 0.0 | 0.00 | 0.00 | 0.00 | 50 | 1014.0 |
| 20260507074821 | 68 | 160 | 6.1 | 0.0 | 0.00 | 0.00 | 0.00 | 53 | 1014.0 |
| 20260507073320 | 68 | 160 | 6.1 | 0.0 | 0.00 | 0.00 | 0.00 | 53 | 1014.0 |
| 20260507071820 | 64 | 180 | 5.2 | 0.0 | 0.00 | 0.00 | 0.00 | 60 | 1014.0 |
| 20260507070320 | 64 | 180 | 5.2 | 0.0 | 0.00 | 0.00 | 0.00 | 60 | 1014.0 |
| 20260507064820 | 64 | 180 | 5.2 | 0.0 | 0.00 | 0.00 | 0.00 | 60 | 1014.0 |